Regional Weather Roundup
Issued by NWS

Home | Current Version | Previous Version | Graphics & Text | Print | Product List | Glossary On
Versions: 1 2 3 4 5 6 7 8 9 10 11 12 13 14 15 16 17 18 19 20 21 22 23 24 25 26 27 28 29 30 31 32 33 34 35 36 37 38 39 40 41 42 43 44 45 46 47 48 49 50
000
ASUS43 KMKX 311859
RWRWI

WISCONSIN REGIONAL WEATHER ROUNDUP
NATIONAL WEATHER SERVICE MILWAUKEE/SULLIVAN WI
100 PM CST SAT JAN 31 2015

NOTE: "FAIR" INDICATES FEW OR NO CLOUDS BELOW 12,000 FEET WITH NO
SIGNIFICANT WEATHER AND/OR OBSTRUCTIONS TO VISIBILITY.

WIZ001-002-006>008-014>016-023>028-312000-
NORTHWEST WISCONSIN

CITY           SKY/WX    TMP DP  RH WIND       PRES   REMARKS
SUPERIOR ARPT  PTSUNNY   23   6  49 NE6       30.27F WCI  15
ASHLAND        SUNNY     21  11  65 NE12      30.25F WCI   9
HAYWARD        CLOUDY    23  13  65 N9        30.20S WCI  13
SIREN          SUNNY     27  15  60 NE10      30.21S WCI  17
CUMBERLAND     CLOUDY    27  16  63 NE9       30.18S WCI  17
RICE LAKE      CLOUDY    26  18  71 N10       30.20S WCI  16
CHETEK         CLOUDY    28  18  68 N6        30.19S WCI  21
LADYSMITH      CLOUDY    27  19  70 N7        30.18S WCI  19
EAU CLAIRE     CLOUDY    28  19  69 NE7       30.18S WCI  21
MENOMONIE      CLOUDY    29  21  71 N7        30.20R WCI  22
NEW RICHMOND   CLOUDY    27  19  72 NE9       30.21R WCI  18
OSCEOLA        CLOUDY    27  19  71 N8        30.24S WCI  19
$$

WIZ003>005-009-010-017-018-312000-
NORTH CENTRAL WISCONSIN

CITY           SKY/WX    TMP DP  RH WIND       PRES   REMARKS
MANITOWISH WTR LGT SNOW  20  15  79 N8        30.14S WCI  11
ARBOR VITAE    LGT SNOW  23  17  78 N14       30.13F WCI  11
WOODRUFF       LGT SNOW  23  17  78 N14       30.13F WCI  11
RHINELANDER    CLOUDY    22  16  78 NW8       30.13S WCI  12
EAGLE RIVER    FLURRIES  22  15  73 NW10      30.12S WCI  11
LAND O LAKES   LGT SNOW  22  16  78 N9        30.13S WCI  11
PHILLIPS       CLOUDY    22  16  75 NW7       30.15S WCI  14
TOMAHAWK       CLOUDY    24  17  74 NW7       30.14F WCI  15
MEDFORD        CLOUDY    25  18  74 N8        30.13F WCI  17
MERRILL        CLOUDY    25  19  75 N8        30.14S WCI  17
$$

WIZ029-030-035-036-043>047-312000-
CENTRAL WISCONSIN

CITY           SKY/WX    TMP DP  RH WIND       PRES   REMARKS
WAUSAU         CLOUDY    26  18  71 N7        30.13F WCI  18
MOSINEE        CLOUDY    27  21  80 N7        30.14F WCI  19
MARSHFIELD     CLOUDY    28  19  69 N7        30.14F WCI  21
STEVENS POINT  CLOUDY    24  17  75 CALM      30.15F
WAUPACA        CLOUDY    30  19  64 NW5       30.17F WCI  25
WAUTOMA        NOT AVBL
WISC RAPIDS    CLOUDY    27  18  69 N6        30.16F WCI  20
CAMP DOUGLAS   NOT AVBL
$$

WIZ011>013-019>022-031-037>040-048>050-312000-
NORTHEAST WISCONSIN

CITY           SKY/WX    TMP DP  RH WIND       PRES   REMARKS
ANTIGO         CLOUDY    24  18  78 N10       30.11F WCI  13
SHAWANO        CLOUDY    30  19  61 CALM      30.15F
OCONTO         CLOUDY    28  19  66 MISG      30.16F
STURGEON BAY   CLOUDY    25  16  68 NW6       30.18S WCI  18
GREEN BAY      CLOUDY    27  18  69 W5        30.17S WCI  22
MANITOWOC      NOT AVBL
APPLETON       CLOUDY    27  18  69 N3        30.16F
CLINTONVILLE   CLOUDY    28  19  69 NW3       30.16F
OSHKOSH        CLOUDY    28  19  69 NW7       30.16F WCI  21
$$

WIZ032>034-041-042-053>061-312000-
SOUTHWEST WISCONSIN

CITY           SKY/WX    TMP DP  RH WIND       PRES   REMARKS
LA CROSSE      CLOUDY    31  21  66 NW6       30.17F WCI  25
SPARTA         CLOUDY    29  23  76 NE5       30.18F WCI  24
VIROQUA        CLOUDY    30  24  76 N7        30.13F WCI  23
BOSCOBEL       CLOUDY    33  22  63 CALM      30.16F
PRAIRIE DU CHI CLOUDY    33  21  62 CALM      30.16F
PLATTEVILLE    CLOUDY    32  24  73 NW5       30.14F WCI  27
$$

WIZ056-057-062-063-064-067-068-312000-
SOUTH CENTRAL WISCONSIN

CITY           SKY/WX    TMP DP  RH WIND       PRES   REMARKS
REEDSBURG      CLOUDY    31  22  68 CALM      30.15F
BARABOO/DELLS  CLOUDY    31  21  65 CALM      30.14F
LONE ROCK      NOT AVBL
MINERAL POINT  PTSUNNY   32  25  74 CALM      30.14S
MADISON        CLOUDY    34  22  61 N3        30.14F
MIDDLETON      PTSUNNY   35  22  59 N5        30.15F WCI  31
WATERTOWN      CLOUDY    32  22  65 NW3       30.15F
MONROE         PTSUNNY   32  25  74 W3        30.14F
JANESVILLE     SUNNY     36  23  60 CALM      30.15F
$$

WIZ051-052-058>065-066-070>072-312000-
SOUTHEAST WISCONSIN

CITY           SKY/WX    TMP DP  RH WIND       PRES   REMARKS
MILWAUKEE      PTSUNNY   36  19  50 W7        30.16F WCI  30
WAUKESHA       MOSUNNY   30  19  64 NW7       30.16F WCI  23
MILWAUKEE/TIMM CLOUDY    34  18  51 NW7       30.17F WCI  28
RACINE         PTSUNNY   35  20  54 NW6       30.17F WCI  30
BURLINGTON     PTSUNNY   32  21  64 W6        30.16F WCI  26
KENOSHA        PTSUNNY   35  22  58 NW8       30.16F WCI  29
FOND DU LAC    CLOUDY    30  19  63 N6        30.16F WCI  24
SHEBOYGAN      CLOUDY    30  19  63 NW7       30.16S WCI  23
WEST BEND      CLOUDY    30  19  64 NW5       30.16S WCI  25
JUNEAU         CLOUDY    29  20  69 CALM      30.17S
$$

LSZ147-162-312000-
LAKE SUPERIOR

STATION/POSITION TIME  TEMP    WIND        PRES    WAVE
                       AIR SEA DIR/SP/G            HT/PER
                 (UTC) (F)     (DEG/KT/KT) (MB)    (FT/S)
DEVILS ISLAND    1800   17     350/ 16/ 19 1026.4R
PORT WING        1800   20      10/  8/ 12 1025.4
SAXON HARBOR     1800   21     340/  9/ 14 1024.4R
$$

LMZ867-665-643>646-312000-
LAKE MICHIGAN

STATION/POSITION TIME  TEMP    WIND        PRES    WAVE
                       AIR SEA DIR/SP/G            HT/PER
                 (UTC) (F)     (DEG/KT/KT) (MB)    (FT/S)
NORTHPORT PIER   1822   26     300/  7/ 14 1021.0F
SISTER BAY       1813             CALM       N/A
KEWAUNEE LAKESHO 1800   26     320/  7/ 12 1020.7F
SHEBOYGAN LAKESH 1800   29     300/  6/  9 1022.7F
PORT WASHINGTON  1840   32     320/  5/  8 1022.4S
MILWAUKEE LAKESH 1800   33     300/  7/  9   N/A
KENOSHA   LAKESH 1800   33     290/ 11/ 13 1021.7F
$$

TC  - TEMPERATURE IN CELSIUS
VSB - VISIBILITY IN STATUTE MILES
WCI - WIND CHILL INDEX
HX  - HEAT INDEX




USA.gov is the U.S. government's official web portal to all federal, state and local government web resources and services.